{"data":{"norad_id":68068,"epoch":"2026-09-19T12:19:14.969280Z","epoch_age_seconds":140727,"freshness":"FRESH","line1":"1 68068U 26041AE  26262.51336770  .00024387  00000+0  73081-3 0  9996","line2":"2 68068  53.1580 226.0153 0001473 116.6465 243.4689 15.34388647 31116","mean_motion":15.34388647,"eccentricity":0.0001473,"inclination_deg":53.158,"raan_deg":226.0153,"arg_perigee_deg":116.6465,"mean_anomaly_deg":243.4689,"bstar":0.00073081,"rev_number":3111,"period_min":93.848452464469,"perigee_km":461.72932318587,"apogee_km":463.74464466153,"semimajor_km":6840.8739839237,"source":"CELESTRAK","updated_at":"2026-09-20T09:00:43.752885Z"}}